Flag for Germany Weather past 2 weeks in Buchholz in der Nordheide, Lower Saxony, Germany

Now
68 °F

Sprinkles. Broken clouds.


Feels Like: 68 °F
Forecast: 56 / 75 °F
Wind: 2 mph from North

Location: Hamburg-Finkenwerder

Current Time: Aug 4, 2015 at 10:37:55 PM

Latest Report: Aug 4, 2015 at 7:20 PM


Visibility: N/A

Pressure: 29.89 "Hg

Humidity: 100%

Dew point: 68 °F

Location of Buchholz in der NordheideLocation

Historic Weather in Buchholz in der Nordheide — Graph

°F

Buchholz in der Nordheide temperature yesterday

Maximum temperature yesterday: 88 °F (at 4:20 PM)
Minimum temperature yesterday: 59 °F (at 5:50 AM)
Average temperature yesterday: 76 °F

Past Weeks' High & Low Weather Summary

 TemperatureHumidityPressure
High88 °F (Aug 3, 4:20 PM)100% (Jul 21, 5:50 AM)30.09 "Hg (Jul 21, 5:50 AM)
Low52 °F (Aug 1, 7:20 AM)31% (Aug 3, 4:20 PM)29.45 "Hg (Jul 27, 2:50 PM)
Average65 °F72%29.82 "Hg
* Reported Jul 21 5:50 AM — Aug 4 7:20 PM, Buchholz in der Nordheide, Weather by CustomWeather, © 2015

Note: Actual official high and low records may vary slightly from our data, if they occured in-between our weather recording intervals... More about our weather records

Advertising

Buchholz in der Nordheide weather history for previous 24 hours

 ConditionsComfort  
Time TempWeatherWind HumidityBarometerVisibility
7:20 PM
Tue, Aug 4
68 °FSprinkles. Broken clouds.2 mph100%29.89 "HgN/A
6:50 PM68 °FSprinkles. Partly sunny.3 mph94%29.92 "Hg6 mi
6:20 PM70 °FSprinkles. Partly sunny.8 mph94%29.92 "Hg5 mi
5:50 PM72 °FSprinkles. Broken clouds.15 mph83%29.86 "Hg6 mi
5:20 PM73 °FSprinkles. Partly sunny.12 mph74%29.86 "HgN/A
4:50 PM77 °FSprinkles. Partly sunny.13 mph61%29.86 "HgN/A
4:20 PM77 °FScattered clouds.10 mph69%29.83 "HgN/A
4:00 PM77 °FSprinkles. Broken clouds.10 mph65%29.86 "HgN/A
3:50 PM77 °FThunderstorms. Broken clouds.8 mph69%29.86 "HgN/A
3:20 PM81 °FThundershowers. Clear.15 mph62%29.83 "HgN/A
2:50 PM84 °FPassing clouds.6 mph51%29.80 "HgN/A
2:20 PM84 °FSunny.3 mph51%29.83 "Hg10 mi
1:50 PM84 °FPassing clouds.7 mph51%29.83 "HgN/A
1:20 PM82 °FPassing clouds.5 mph51%29.83 "HgN/A
12:50 PM82 °FPassing clouds.6 mph51%29.83 "HgN/A
12:20 PM81 °FSunny.5 mph54%29.83 "Hg10 mi
11:50 AM81 °FPassing clouds.6 mph54%29.83 "HgN/A
11:20 AM79 °FPassing clouds.8 mph61%29.86 "HgN/A
10:50 AM79 °FPassing clouds.5 mph58%29.86 "HgN/A
10:20 AM79 °FPassing clouds.6 mph54%29.86 "HgN/A
9:50 AM77 °FPassing clouds.6 mph61%29.86 "HgN/A
9:20 AM75 °FPassing clouds.6 mph61%29.86 "HgN/A
8:50 AM73 °FPassing clouds.7 mph61%29.86 "HgN/A
8:20 AM72 °FPassing clouds.6 mph61%29.86 "HgN/A
7:50 AM70 °FPassing clouds.8 mph64%29.86 "HgN/A
7:20 AM70 °FPassing clouds.8 mph64%29.86 "HgN/A
6:20 AM68 °FPassing clouds.7 mph69%29.86 "HgN/A
5:50 AM68 °FPassing clouds.6 mph69%29.89 "HgN/A
Weather by CustomWeather, © 2015

See weather overviewHow to use our weather pages